GFSNGP_850_dewp_000.txt.gz
Dewpoint
4 3 3 3 3 2 2 2 4 3 2 -0 -1 -2 -2 -1 0 0 0 1 2 2 1 1 2 2 -0 -3 -5 -5 -6 -7 -7 -5 -4 -3 -4 -6 -7 -8 -8 -9 -10 -12
6 4 3 3 3 3 2 1 1 1 2 -2 -3 -2 -1 0 1 1 3 3 3 2 1 2 2 2 -1 -4 -5 -7 -7 -5 -3 -1 -3 -3 -6 -8 -8 -8 -9 -11 -12 -12
7 4 5 6 3 2 2 0 0 3 1 -2 -2 -0 1 2 2 3 3 3 3 2 2 2 1 1 1 -3 -3 -4 -3 -1 -2 -2 -4 -6 -8 -8 -8 -9 -12 -12 -12 -11
7 6 7 2 -1 -1 1 0 -1 -1 -2 -1 -1 2 2 2 3 3 3 3 3 2 2 2 1 2 1 1 0 -0 -1 -2 -2 -5 -7 -7 -8 -8 -11 -12 -12 -12 -12 -11
7 7 4 3 0 1 2 2 -1 -0 2 2 2 3 3 3 3 4 3 2 1 1 1 1 0 1 1 0 0 -1 -3 -6 -8 -7 -8 -8 -9 -12 -12 -12 -12 -12 -11 -11
8 7 7 2 -1 -2 -1 4 3 3 3 4 3 5 4 3 3 3 3 2 0 0 0 -1 0 -1 -1 -2 -4 -6 -7 -7 -8 -9 -9 -10 -12 -12 -13 -12 -12 -12 -12 -10
7 7 5 1 -1 0 6 7 4 4 4 4 4 4 3 3 3 3 2 -1 0 1 -2 -1 -0 -1 -4 -6 -7 -5 -9 -10 -11 -9 -11 -11 -12 -12 -13 -13 -12 -12 -9 -10
6 7 7 -0 1 6 3 3 4 4 4 4 3 3 2 2 2 0 -0 -0 1 -2 -0 -0 -1 -2 -7 -10 -10 -11 -11 -10 -9 -11 -11 -11 -11 -12 -13 -12 -12 -10 -11 -11
3 4 0 0 1 2 2 3 3 4 2 2 2 1 1 2 1 1 -1 0 -2 -1 -0 -1 -3 -9 -9 -9 -10 -9 -10 -10 -11 -12 -11 -10 -12 -12 -12 -12 -11 -11 -10 -11
4 1 1 1 2 2 3 3 3 3 3 2 -0 -3 -3 -1 1 -0 -0 -2 -1 -1 -2 -4 -6 -9 -9 -10 -9 -10 -13 -14 -13 -11 -10 -11 -11 -11 -12 -11 -10 -10 -11 -11
3 2 2 2 2 2 3 3 3 2 -0 -4 -5 -5 -4 -0 -1 -0 -2 -1 -1 -2 -3 -5 -7 -8 -10 -10 -10 -14 -15 -12 -9 -9 -11 -11 -10 -11 -11 -11 -11 -11 -11 -11
4 2 3 3 2 2 2 3 2 -3 -5 -5 -5 -3 -0 -0 -1 -2 -3 -2 -2 -3 -7 -8 -8 -8 -8 -10 -14 -14 -13 -12 -11 -11 -11 -9 -10 -10 -11 -12 -12 -11 -11 -11
2 1 1 1 1 1 3 0 -3 -6 -5 -3 -0 -1 -1 -1 -1 -3 -2 -1 -3 -7 -8 -8 -8 -10 -8 -11 -14 -13 -13 -11 -11 -10 -10 -10 -10 -11 -12 -12 -12 -12 -11 -11
0 1 2 1 2 -0 -3 -4 -6 -5 -3 -2 -1 -2 -2 -1 -1 -2 -2 -6 -8 -8 -8 -8 -10 -9 -8 -11 -12 -12 -12 -10 -9 -10 -13 -11 -11 -11 -11 -11 -12 -12 -11 -11
0 1 -0 -2 -3 -5 -6 -6 -5 -3 -1 -2 -2 -3 -2 -2 -2 -4 -6 -8 -11 -10 -9 -9 -13 -13 -13 -12 -12 -10 -8 -8 -10 -10 -11 -10 -10 -12 -11 -12 -12 -12 -12 -12
0 -2 -3 -5 -5 -6 -6 -5 -3 -1 -3 -1 -3 -5 -5 -5 -7 -7 -7 -10 -15 -15 -14 -14 -13 -12 -11 -11 -10 -9 -8 -8 -9 -10 -10 -10 -11 -12 -11 -13 -12 -12 -12 -12
-4 -5 -6 -6 -6 -6 -5 -4 -2 -2 -6 -7 -7 -7 -7 -8 -10 -11 -12 -15 -14 -14 -14 -13 -12 -9 -10 -10 -9 -8 -8 -8 -9 -10 -10 -11 -11 -13 -12 -13 -12 -12 -12 -13
-6 -7 -6 -6 -5 -5 -5 -3 -3 -5 -5 -7 -7 -10 -15 -16 -16 -15 -14 -14 -15 -15 -15 -9 -6 -8 -8 -9 -9 -8 -9 -9 -9 -10 -10 -11 -12 -11 -12 -13 -13 -12 -13 -13
-7 -7 -8 -7 -5 -4 -5 -4 -2 -4 -3 -4 -14 -17 -15 -15 -14 -13 -13 -14 -14 -12 -7 -7 -8 -7 -7 -9 -9 -8 -9 -10 -10 -11 -11 -12 -12 -13 -13 -13 -13 -13 -13 -13
-12 -8 -6 -6 -5 -4 -5 -6 -2 -3 -4 -15 -14 -15 -15 -15 -14 -13 -12 -11 -7 -5 -5 -6 -7 -6 -7 -8 -9 -9 -9 -9 -10 -11 -11 -12 -12 -13 -13 -14 -13 -14 -14 -14
-8 -10 -6 -4 -3 -3 -3 -5 -3 -3 -13 -11 -12 -13 -11 -10 -10 -12 -14 -14 -8 -7 -7 -7 -7 -7 -7 -8 -8 -8 -9 -9 -11 -11 -12 -12 -13 -13 -13 -14 -14 -14 -14 -15
-8 -7 -5 -4 -3 -3 -2 -2 -3 -7 -11 -10 -12 -10 -9 -11 -13 -13 -10 -10 -10 -11 -10 -9 -7 -7 -7 -8 -8 -9 -9 -10 -11 -12 -12 -12 -13 -13 -14 -14 -14 -14 -15 -15
-7 -3 -3 -3 -3 -3 -3 -4 -4 -8 -8 -11 -10 -9 -10 -12 -14 -13 -11 -10 -11 -9 -9 -8 -8 -9 -8 -8 -8 -9 -9 -10 -11 -11 -12 -12 -13 -13 -14 -14 -15 -15 -15 -15
-4 -3 -4 -4 -4 -4 -4 -4 -7 -8 -10 -10 -9 -9 -10 -12 -12 -8 -8 -11 -11 -9 -9 -8 -9 -8 -8 -9 -9 -9 -9 -10 -11 -11 -12 -13 -13 -13 -14 -14 -15 -15 -16 -16
-4 -3 -4 -3 -4 -4 -5 -6 -6 -8 -9 -9 -8 -8 -13 -13 -14 -13 -11 -9 -8 -8 -8 -8 -8 -8 -8 -8 -8 -9 -9 -10 -10 -11 -12 -12 -13 -14 -14 -14 -16 -17 -18 -21
-4 -3 -5 -4 -4 -4 -5 -6 -6 -6 -7 -6 -5 -7 -11 -16 -15 -14 -11 -8 -8 -8 -8 -8 -8 -8 -8 -8 -8 -9 -9 -10 -10 -11 -11 -13 -13 -15 -14 -15 -19 -20 -25 -29
-4 -4 -3 -4 -5 -5 -5 -5 -7 -6 -6 -7 -7 -9 -13 -15 -14 -13 -8 -8 -8 -8 -8 -8 -8 -9 -8 -8 -9 -9 -9 -10 -10 -10 -11 -12 -14 -15 -16 -17 -19 -25 -29 -31

GFSNGP_850_dewp_006.txt.gz
Dewpoint
4 3 4 4 4 4 5 4 5 3 3 1 2 1 2 2 2 2 3 3 1 0 -0 1 -2 -1 -1 2 1 -1 -2 -1 -6 -8 -8 -7 -5 -5 -3 -5 -8 -9 -8 -8
5 4 5 6 4 4 4 3 3 2 2 3 3 3 3 3 3 3 3 2 -1 -1 1 1 -1 0 1 0 -3 -3 0 -0 -4 -4 -3 -3 -2 -3 -6 -6 -8 -8 -8 -9
4 4 5 6 4 3 1 1 1 3 2 3 4 4 4 3 2 3 3 1 1 2 2 -0 -1 -0 -1 -3 -4 -2 -1 -1 -1 -2 -3 -5 -5 -5 -6 -8 -8 -9 -12 -13
4 4 7 3 0 1 1 1 0 3 3 3 4 3 3 3 2 3 1 1 1 3 1 1 -0 -1 -2 -4 -4 -3 -3 -2 -2 -2 -2 -6 -8 -9 -9 -10 -12 -14 -15 -14
4 6 3 3 1 1 1 2 2 4 4 4 3 4 3 2 3 2 0 0 1 1 0 -2 -1 -2 -3 -3 -5 -2 -6 -6 -8 -7 -5 -5 -6 -9 -13 -14 -15 -14 -14 -14
3 5 5 1 -1 0 2 4 3 3 3 4 4 5 3 3 2 -2 -1 1 1 0 -1 -2 -1 -1 -2 -5 -6 -7 -6 -7 -7 -8 -11 -13 -14 -14 -14 -13 -13 -14 -13 -12
-1 4 1 -0 -1 1 1 1 2 2 2 3 4 3 3 3 -0 -3 0 0 -1 -2 -3 -2 -1 -1 -3 -8 -9 -5 -5 -7 -10 -14 -16 -16 -15 -13 -13 -14 -14 -12 -11 -11
2 4 5 0 1 3 1 1 1 1 2 4 4 3 2 -0 -2 -2 -2 -3 -5 -5 -1 -2 -3 -5 -7 -7 -6 -7 -9 -11 -16 -17 -15 -14 -12 -12 -13 -12 -11 -11 -11 -13
1 2 -0 -0 0 1 1 1 1 3 4 4 3 1 1 -1 -3 -3 -4 -6 -5 -2 -2 -3 -4 -6 -6 -6 -8 -10 -11 -17 -16 -16 -15 -12 -12 -12 -11 -10 -10 -11 -13 -13
2 0 -0 0 0 1 1 2 4 4 2 1 1 0 -3 -1 -2 -4 -7 -5 -4 -2 -2 -4 -5 -7 -7 -7 -9 -14 -17 -17 -17 -16 -14 -12 -12 -12 -10 -10 -12 -11 -13 -12
3 2 2 1 0 1 3 4 2 1 1 1 -3 -5 -2 -1 -5 -8 -5 -4 -3 -3 -2 -4 -7 -8 -8 -10 -15 -16 -16 -15 -14 -13 -12 -11 -11 -12 -11 -12 -12 -11 -13 -11
4 1 1 2 3 3 2 2 1 0 -0 -4 -5 -3 -1 -4 -6 -5 -3 -3 -3 -5 -7 -6 -8 -9 -10 -16 -15 -14 -13 -12 -11 -10 -10 -10 -10 -11 -11 -11 -12 -13 -13 -12
3 3 2 3 3 3 -0 -1 -2 -4 -5 -5 -3 -2 -3 -5 -4 -4 -2 -3 -5 -5 -7 -8 -9 -9 -13 -15 -13 -11 -10 -10 -8 -8 -8 -9 -10 -11 -11 -11 -12 -13 -13 -13
2 2 3 3 2 -0 -1 -3 -5 -5 -4 -3 -2 -2 -3 -4 -9 -6 -5 -6 -6 -6 -6 -10 -9 -9 -11 -12 -10 -9 -9 -9 -8 -8 -9 -9 -10 -11 -11 -12 -13 -14 -13 -13
2 1 2 -0 -3 -6 -8 -6 -3 -4 -4 -6 -5 -4 -3 -6 -7 -7 -6 -8 -7 -7 -9 -14 -9 -11 -12 -10 -8 -8 -7 -8 -8 -9 -9 -10 -10 -11 -11 -12 -13 -14 -14 -13
-0 -1 -1 -5 -10 -9 -6 -5 -4 -4 -4 -4 -5 -4 -3 -3 -5 -9 -14 -15 -14 -15 -14 -14 -15 -15 -14 -10 -6 -6 -7 -8 -9 -9 -10 -10 -10 -12 -11 -13 -13 -14 -13 -13
-2 -4 -9 -10 -11 -11 -11 -8 -4 -4 -4 -4 -3 -3 -2 -3 -7 -14 -11 -14 -13 -13 -15 -15 -13 -7 -5 -6 -6 -7 -9 -8 -9 -10 -11 -10 -11 -12 -12 -13 -14 -14 -13 -14
-7 -10 -12 -11 -14 -13 -12 -10 -7 -4 -2 -3 -3 -3 -3 -6 -12 -9 -13 -14 -13 -12 -10 -8 -10 -7 -7 -7 -8 -8 -8 -9 -9 -10 -11 -12 -12 -12 -12 -13 -14 -14 -14 -14
-7 -6 -7 -9 -12 -12 -9 -6 -5 -4 -3 -4 -4 -3 -4 -13 -7 -10 -12 -11 -12 -13 -13 -14 -12 -8 -8 -8 -8 -8 -8 -9 -9 -10 -11 -12 -12 -13 -13 -13 -14 -14 -15 -15
-6 -6 -7 -8 -12 -7 -6 -6 -6 -6 -5 -4 -4 -4 -8 -6 -9 -10 -12 -17 -15 -14 -16 -12 -9 -8 -8 -8 -8 -8 -9 -10 -10 -11 -11 -12 -12 -13 -13 -14 -14 -14 -15 -15
-6 -6 -6 -9 -11 -8 -7 -6 -4 -5 -6 -4 -4 -5 -6 -7 -8 -10 -12 -12 -11 -12 -11 -9 -9 -8 -9 -8 -8 -8 -9 -10 -11 -11 -12 -12 -13 -13 -14 -14 -14 -14 -15 -15
-8 -7 -7 -8 -9 -8 -7 -8 -3 -3 -5 -4 -4 -6 -6 -8 -8 -9 -11 -10 -9 -10 -8 -8 -8 -9 -9 -9 -8 -9 -10 -10 -11 -11 -11 -12 -13 -13 -14 -14 -14 -15 -15 -16
-7 -7 -7 -7 -8 -6 -5 -6 -3 -4 -5 -5 -5 -6 -7 -7 -9 -9 -9 -9 -8 -8 -8 -8 -9 -9 -9 -9 -8 -9 -10 -10 -11 -11 -11 -12 -12 -13 -14 -14 -14 -15 -16 -18
-8 -9 -7 -7 -6 -6 -6 -6 -4 -5 -5 -5 -5 -6 -6 -7 -8 -10 -8 -8 -8 -9 -9 -9 -9 -9 -9 -8 -9 -10 -10 -10 -10 -11 -11 -11 -12 -13 -14 -14 -14 -16 -19 -22
-6 -6 -6 -5 -5 -6 -5 -5 -5 -5 -5 -5 -6 -6 -6 -7 -11 -14 -14 -10 -8 -8 -8 -9 -9 -9 -9 -10 -10 -10 -10 -9 -10 -10 -11 -11 -12 -12 -14 -15 -15 -18 -23 -29
-4 -4 -4 -4 -5 -6 -5 -4 -4 -5 -5 -5 -5 -6 -5 -6 -7 -12 -14 -10 -9 -9 -9 -9 -9 -9 -9 -10 -10 -10 -10 -9 -9 -10 -10 -11 -11 -12 -13 -16 -16 -21 -28 -31
-4 -5 -4 -5 -6 -5 -4 -3 -4 -5 -5 -5 -5 -6 -5 -6 -6 -10 -11 -9 -9 -9 -9 -9 -9 -9 -9 -10 -10 -10 -10 -10 -9 -10 -10 -10 -11 -12 -12 -14 -17 -20 -26 -28

GFSNGP_850_dewp_009.txt.gz
Dewpoint
3 3 3 4 4 4 5 4 6 4 4 2 1 2 3 3 3 2 2 3 3 1 1 1 1 -2 -1 -1 -1 -2 -4 -4 -1 -5 -8 -8 -6 -4 -4 -3 -5 -7 -7 -8
4 4 4 5 4 4 4 4 4 3 2 -1 2 3 3 3 3 3 2 2 2 -0 0 1 0 0 0 -1 -1 -4 -4 -2 -1 -2 -3 -3 -2 -3 -5 -4 -3 -4 -6 -10
3 4 3 2 2 3 3 1 1 2 1 2 3 3 3 3 3 2 1 2 1 -1 -0 -1 1 -0 -2 -2 -3 -4 -3 -3 -1 -2 -2 -3 -4 -6 -7 -7 -7 -10 -13 -14
1 4 5 1 -0 -0 1 1 0 1 3 3 3 3 3 3 3 2 2 -0 -2 -3 -2 -1 -0 -3 -3 -2 -3 -2 -1 -3 -4 -5 -6 -6 -6 -7 -8 -11 -13 -14 -15 -15
4 5 2 2 0 1 1 1 1 3 3 2 1 3 3 2 3 2 -0 -1 -1 -1 0 -2 -5 -3 -2 -2 -4 -4 -5 -5 -5 -6 -9 -10 -12 -12 -14 -14 -14 -14 -14 -14
3 5 5 1 -3 -1 2 4 2 3 3 1 2 4 2 4 3 1 -1 -1 -1 -1 -4 -6 -2 -1 -2 -2 -3 -4 -6 -7 -7 -10 -12 -14 -16 -15 -13 -13 -14 -14 -13 -12
2 3 2 -1 -1 -0 4 2 0 1 1 2 2 3 4 2 -0 -2 -4 -2 -2 -5 -6 -2 -1 -2 -4 -6 -7 -7 -6 -8 -10 -15 -16 -16 -15 -13 -13 -13 -13 -12 -13 -13
2 3 3 -0 1 2 1 0 1 1 2 4 4 3 2 -0 -3 -4 -1 -4 -8 -6 -3 -2 -3 -5 -6 -7 -7 -6 -9 -11 -16 -16 -16 -16 -14 -13 -12 -13 -13 -13 -14 -14
1 2 -1 -0 -0 -0 1 1 1 4 4 2 2 1 -2 -6 -2 -1 -4 -8 -6 -4 -3 -3 -3 -5 -5 -6 -6 -7 -14 -16 -17 -16 -15 -13 -12 -12 -12 -12 -13 -13 -12 -13
1 1 -0 0 1 1 1 2 4 2 2 1 -0 -2 -5 -5 -1 -2 -6 -9 -5 -3 -3 -4 -3 -5 -5 -6 -8 -14 -15 -14 -14 -14 -13 -12 -11 -10 -11 -12 -12 -12 -12 -13
3 2 3 2 1 2 3 4 3 2 1 -2 -6 -6 -3 -3 -1 -4 -5 -6 -3 -3 -5 -7 -7 -8 -8 -8 -14 -15 -13 -12 -11 -11 -9 -9 -10 -10 -10 -11 -11 -11 -13 -13
5 2 2 2 4 4 2 1 1 -2 -5 -6 -4 -3 -4 -2 -2 -3 -3 -6 -5 -7 -6 -7 -8 -8 -8 -10 -14 -14 -11 -10 -10 -9 -8 -9 -9 -10 -11 -12 -12 -12 -14 -12
3 2 3 3 3 1 0 -2 -5 -5 -4 -3 -4 -3 -3 -3 -3 -2 -5 -5 -5 -6 -5 -6 -8 -9 -8 -9 -12 -12 -10 -8 -8 -9 -9 -9 -9 -11 -11 -12 -12 -13 -14 -14
2 3 3 3 1 -2 -7 -6 -5 -6 -5 -3 -4 -5 -5 -5 -4 -3 -6 -6 -6 -9 -6 -7 -9 -12 -9 -8 -11 -10 -8 -7 -7 -9 -9 -10 -10 -10 -10 -12 -12 -14 -15 -14
1 1 2 1 -5 -9 -10 -12 -9 -4 -3 -5 -5 -4 -4 -4 -3 -2 -4 -6 -13 -12 -12 -14 -14 -13 -13 -13 -13 -9 -7 -7 -8 -9 -10 -10 -11 -11 -12 -12 -13 -14 -15 -14
-0 -0 -3 -7 -9 -12 -14 -14 -10 -8 -6 -5 -3 -3 -3 -3 -3 -3 -5 -12 -10 -12 -13 -13 -15 -15 -15 -9 -6 -7 -7 -8 -9 -9 -10 -10 -11 -11 -12 -13 -13 -14 -14 -14
-2 -6 -10 -9 -5 -7 -10 -13 -9 -7 -6 -6 -4 -5 -5 -4 -4 -5 -12 -9 -10 -12 -13 -14 -12 -11 -9 -7 -7 -7 -8 -8 -9 -9 -10 -11 -12 -12 -13 -13 -13 -14 -14 -15
-6 -4 -3 -7 -8 -9 -12 -13 -9 -6 -6 -7 -6 -6 -5 -4 -4 -11 -8 -10 -12 -11 -11 -12 -17 -14 -9 -8 -8 -8 -8 -9 -9 -10 -10 -11 -12 -12 -12 -13 -13 -14 -14 -15
-6 -7 -7 -7 -7 -8 -10 -11 -8 -8 -6 -5 -5 -6 -5 -5 -7 -7 -8 -10 -10 -11 -13 -16 -15 -11 -9 -9 -9 -8 -9 -9 -10 -11 -11 -12 -12 -13 -13 -14 -14 -14 -15 -15
-7 -10 -8 -6 -6 -6 -8 -8 -7 -7 -8 -4 -4 -5 -6 -5 -6 -6 -9 -11 -14 -14 -15 -14 -11 -9 -8 -9 -9 -9 -9 -10 -10 -11 -11 -12 -12 -13 -13 -14 -14 -15 -15 -16
-11 -10 -7 -7 -6 -6 -6 -7 -7 -4 -5 -3 -4 -5 -4 -6 -6 -7 -7 -9 -10 -10 -11 -11 -9 -9 -9 -9 -9 -9 -9 -10 -10 -11 -11 -12 -12 -13 -14 -15 -15 -15 -15 -16
-9 -8 -9 -9 -9 -8 -8 -7 -6 -6 -5 -4 -6 -5 -5 -6 -6 -7 -7 -8 -8 -9 -9 -9 -9 -9 -9 -9 -9 -9 -10 -10 -10 -11 -11 -11 -12 -12 -13 -15 -15 -15 -15 -18
-10 -9 -7 -7 -6 -6 -6 -6 -6 -5 -5 -5 -6 -5 -6 -6 -6 -7 -8 -9 -8 -8 -9 -9 -9 -9 -10 -9 -8 -10 -10 -10 -11 -10 -11 -11 -12 -12 -13 -14 -15 -15 -17 -22
-8 -8 -7 -7 -5 -5 -4 -4 -6 -5 -5 -4 -4 -5 -6 -6 -6 -7 -7 -8 -9 -9 -9 -9 -9 -9 -9 -10 -10 -10 -10 -10 -11 -10 -10 -11 -11 -12 -12 -14 -15 -16 -23 -28
-7 -7 -6 -5 -4 -4 -4 -5 -5 -4 -4 -4 -4 -5 -6 -7 -6 -7 -9 -12 -11 -9 -9 -9 -9 -9 -10 -10 -10 -10 -10 -11 -10 -10 -10 -10 -11 -12 -12 -14 -16 -18 -25 -31
-6 -7 -7 -5 -5 -5 -5 -5 -4 -5 -4 -4 -5 -5 -7 -7 -6 -6 -7 -12 -10 -9 -9 -9 -9 -9 -10 -10 -10 -10 -10 -10 -10 -10 -10 -10 -11 -11 -12 -13 -15 -18 -25 -31
-8 -7 -6 -5 -5 -5 -5 -5 -5 -5 -5 -5 -5 -6 -8 -6 -6 -6 -7 -9 -9 -9 -9 -10 -10 -10 -10 -10 -10 -10 -10 -10 -10 -10 -10 -10 -11 -11 -11 -12 -14 -17 -21 -25

GFSNGP_850_dewp_015.txt.gz
Dewpoint
2 2 2 3 3 3 4 4 5 3 3 1 1 1 1 2 1 1 2 3 3 1 -0 -2 -3 -4 -2 -2 -6 -5 -5 -3 -2 -2 -2 -2 -2 -3 -3 -4 -5 -8 -9 -9
4 3 2 4 2 3 3 4 4 4 4 1 1 2 2 1 1 2 3 3 1 -2 -4 -5 -1 -1 -3 -7 -6 -3 -3 -2 -2 -2 -3 -5 -7 -9 -10 -10 -10 -10 -11 -12
3 2 2 3 -1 2 2 2 2 3 -0 1 1 2 1 1 2 3 2 0 -4 -8 -7 -1 -0 -6 -8 -5 -2 -3 -3 -4 -6 -7 -7 -8 -9 -10 -13 -14 -14 -14 -14 -14
5 3 4 -0 -1 -0 1 0 0 0 -0 0 1 1 2 2 2 2 1 1 -3 -5 -2 -1 -6 -9 -6 -3 -4 -4 -6 -6 -6 -7 -9 -10 -12 -16 -16 -15 -14 -14 -14 -13
5 4 3 1 -1 0 2 1 -1 0 1 1 1 2 2 2 2 1 -3 -7 -5 -3 -1 -6 -8 -6 -4 -4 -3 -6 -6 -6 -6 -7 -10 -16 -17 -17 -16 -15 -14 -14 -13 -12
4 6 6 2 -2 -1 1 3 1 2 2 2 2 4 3 2 1 -4 -7 -5 -4 -1 -4 -8 -7 -4 -4 -3 -4 -6 -6 -7 -8 -11 -16 -16 -15 -14 -14 -13 -12 -11 -11 -12
4 4 4 0 -1 -1 5 4 1 1 2 2 2 3 2 1 -4 -4 -4 -3 -2 -1 -5 -8 -7 -8 -6 -3 -4 -4 -5 -8 -8 -15 -14 -13 -13 -12 -11 -11 -11 -11 -11 -11
3 4 4 -2 -1 2 1 2 1 2 2 3 3 1 0 -4 -3 -3 -5 -3 -1 -3 -4 -5 -9 -10 -9 -10 -7 -6 -7 -7 -12 -14 -12 -10 -11 -11 -10 -9 -10 -11 -12 -11
3 3 -1 -1 -1 -0 2 3 3 3 3 2 -0 -3 -5 -3 -2 -3 -5 -5 -2 -2 -3 -3 -8 -9 -12 -12 -8 -7 -7 -9 -13 -13 -11 -9 -9 -10 -9 -9 -10 -10 -10 -11
2 2 1 1 1 2 4 3 3 2 1 -3 -2 -3 -2 -2 -3 -3 -5 -6 -5 -4 -3 -3 -6 -7 -7 -6 -6 -7 -7 -10 -11 -11 -10 -8 -8 -10 -9 -9 -10 -11 -11 -12
3 2 2 1 2 4 3 2 0 -3 -3 -4 -3 -4 -4 -3 -3 -4 -5 -6 -5 -4 -3 -3 -4 -5 -4 -5 -5 -6 -7 -9 -9 -9 -8 -7 -9 -10 -10 -10 -11 -11 -12 -12
4 2 3 4 4 3 1 -5 -5 -6 -11 -13 -12 -9 -4 -3 -4 -6 -6 -6 -7 -4 -3 -4 -5 -5 -7 -9 -8 -9 -8 -8 -8 -8 -7 -8 -9 -10 -11 -11 -12 -12 -14 -15
3 3 3 3 2 -4 -3 -6 -10 -11 -12 -13 -14 -11 -9 -9 -8 -6 -6 -9 -9 -6 -5 -4 -7 -9 -9 -12 -13 -11 -8 -9 -8 -7 -8 -8 -10 -10 -11 -12 -13 -14 -14 -15
1 1 2 1 -1 -5 -9 -9 -9 -10 -12 -14 -15 -14 -10 -8 -9 -9 -7 -8 -7 -6 -5 -6 -9 -9 -11 -12 -13 -12 -10 -8 -7 -8 -8 -10 -10 -11 -12 -13 -14 -15 -15 -15
0 -0 -2 -5 -6 -6 -7 -8 -11 -12 -10 -10 -11 -11 -9 -9 -9 -7 -6 -6 -8 -5 -6 -9 -8 -10 -12 -12 -13 -8 -8 -8 -8 -9 -10 -10 -10 -11 -12 -13 -14 -14 -15 -16
-4 -5 -5 -6 -8 -9 -9 -9 -7 -7 -7 -7 -7 -8 -8 -7 -6 -6 -5 -5 -5 -5 -8 -7 -8 -10 -11 -14 -10 -9 -9 -8 -8 -9 -10 -10 -11 -12 -13 -14 -16 -15 -15 -16
-6 -8 -9 -9 -11 -13 -11 -10 -7 -5 -4 -4 -5 -6 -7 -8 -5 -5 -5 -5 -5 -6 -6 -6 -8 -9 -12 -12 -10 -9 -9 -9 -9 -9 -10 -11 -11 -12 -13 -15 -16 -15 -16 -16
-8 -10 -10 -11 -12 -12 -12 -10 -9 -9 -9 -9 -9 -7 -7 -6 -5 -5 -6 -6 -6 -6 -6 -7 -8 -10 -12 -10 -10 -10 -9 -9 -10 -10 -10 -11 -11 -12 -13 -16 -17 -17 -18 -18
-15 -15 -14 -13 -11 -11 -10 -10 -9 -8 -9 -7 -6 -6 -6 -6 -5 -5 -6 -5 -6 -6 -7 -9 -11 -12 -10 -10 -10 -10 -10 -10 -10 -10 -10 -11 -11 -12 -12 -14 -17 -18 -19 -20
-16 -15 -11 -10 -10 -9 -9 -9 -8 -9 -8 -5 -5 -5 -5 -6 -4 -4 -5 -6 -6 -6 -7 -8 -11 -9 -10 -10 -10 -10 -10 -10 -10 -10 -11 -11 -11 -11 -12 -13 -15 -17 -18 -21
-12 -9 -8 -9 -9 -9 -9 -9 -8 -8 -8 -6 -5 -4 -4 -5 -6 -5 -5 -6 -6 -6 -7 -8 -9 -9 -10 -10 -11 -10 -10 -10 -10 -11 -11 -11 -11 -11 -12 -12 -14 -17 -18 -22
-9 -8 -8 -8 -8 -9 -10 -9 -8 -7 -7 -7 -7 -5 -5 -5 -5 -5 -6 -7 -6 -7 -7 -9 -9 -10 -10 -10 -11 -11 -10 -10 -11 -11 -11 -11 -10 -11 -11 -12 -13 -16 -18 -24
-8 -8 -7 -8 -8 -9 -10 -9 -9 -8 -7 -6 -6 -5 -5 -5 -5 -5 -6 -6 -7 -7 -8 -10 -10 -10 -10 -10 -10 -11 -11 -11 -11 -11 -11 -11 -10 -10 -11 -11 -12 -15 -18 -23
-8 -7 -7 -8 -10 -10 -10 -10 -8 -8 -7 -7 -7 -6 -5 -5 -6 -5 -6 -6 -6 -7 -9 -9 -10 -10 -10 -10 -10 -10 -10 -10 -10 -10 -11 -11 -10 -11 -11 -11 -12 -12 -17 -21
-7 -8 -8 -8 -9 -11 -11 -8 -8 -6 -6 -5 -5 -6 -6 -5 -5 -6 -6 -6 -7 -7 -8 -9 -10 -10 -10 -10 -10 -10 -10 -10 -10 -10 -10 -10 -11 -11 -11 -11 -11 -12 -13 -17
-8 -8 -8 -7 -7 -9 -10 -7 -6 -6 -5 -6 -5 -6 -6 -6 -6 -6 -6 -7 -7 -8 -8 -9 -10 -10 -10 -10 -11 -11 -11 -11 -11 -11 -10 -11 -11 -11 -11 -11 -11 -12 -12 -13
-10 -9 -7 -7 -7 -8 -7 -6 -6 -6 -6 -6 -6 -6 -6 -5 -6 -6 -7 -7 -7 -7 -8 -9 -10 -10 -10 -11 -11 -11 -11 -11 -11 -11 -11 -11 -10 -11 -11 -11 -12 -12 -12 -13